#timestamp,LO_Frequency,Hit,StdDev 
1679331615.4,286047007.5,N
1679331635.3,286047008.2,N
1679331655.1,286047013.4,N
1679331675.8,286047010.3,N
1679331695.7,286047007.3,N
1679331715.5,286047004.9,N
1679331735.3,286047004.1,N
1679331755.2,286047002.1,N
1679331775.0,286047004.1,N
1679331775.9,286047004.1,N
1679331795.8,286047005.0,N
1679331815.6,286047006.7,N
1679331835.4,286047008.1,N
1679331855.3,286047010.8,N
1679331875.1,286047008.2,N
1679331895.9,286047011.7,Y
1679331915.7,286047007.7,P
1679331935.5,286047007.3,P
1679331955.4,286047005.3,P
1679331975.2,286047003.2,Y
1679331995.0,286046997.9,P
1679331995.9,286046997.9,N
1679332015.8,286046998.9,N
1679332035.6,286046996.5,N
1679332055.5,286046996.5,N
1679332075.3,286046998.9,N
1679332095.1,286047001.1,N
1679332115.9,286046996.7,N
1679332135.7,286046995.4,N
1679332155.5,286046996.3,N
1679332175.4,286046999.1,N
1679332195.2,286047000.1,N
1679332215.0,286046998.5,N
1679332216.0,286046998.5,N
1679332235.8,286046998.3,N
1679332255.6,286046998.5,N
1679332275.5,286047000.1,N
1679332295.3,286047002.1,N
1679332315.1,286047003.5,N
1679332335.9,286047003.9,N
1679332355.7,286047003.4,N
1679332375.6,286047001.9,N
1679332395.4,286047000.0,N
1679332415.2,286047000.0,N
1679332435.1,286047004.1,N
1679332436.0,286047004.1,N
1679332455.8,286047004.0,N
1679332475.7,286047001.9,N
1679332495.5,286047001.5,N
1679332515.3,286047002.7,N
1679332535.2,286047000.0,N
1679332555.9,286046999.1,N
1679332575.7,286046998.6,N
1679332595.6,286047002.6,N
1679332615.4,286047002.4,N
1679332635.3,286047002.9,N
1679332655.1,286047000.6,N
1679332656.0,286047000.6,N
1679332675.8,286047002.6,N
1679332695.7,286047005.1,N
1679332715.5,286047003.3,N
1679332735.3,286047001.4,N
1679332755.2,286047002.9,N
1679332775.0,286047005.7,N
1679332775.9,286047005.7,N
1679332795.8,286047005.6,N
1679332815.6,286047012.0,Y
1679332835.4,286047012.1,P
1679332855.3,286047010.4,N
1679332875.1,286047008.2,N
1679332895.8,286047004.8,N
1679332915.7,286047003.4,N
1679332935.5,286047002.7,N
1679332955.4,286047001.3,N
1679332975.2,286047003.4,N
1679332995.0,286047005.2,N
1679332995.9,286047005.2,N
1679333015.8,286047005.6,N
1679333035.6,286047007.6,N
1679333055.4,286047009.0,N
1679333075.3,286047004.5,N
1679333095.1,286047003.1,N
1679333115.9,286047005.3,N
1679333135.7,286047006.4,N
1679333155.5,286047006.5,N
1679333175.4,286047010.9,Y
1679333195.2,286047012.0,P
1679333215.0,286047013.2,P
1679333215.9,286047013.2,P
1679333235.8,286047017.1,Y
1679333255.6,286047006.2,P
1679333275.5,286047006.3,N
1679333295.3,286047008.9,P
1679333315.1,286047005.5,N
1679333335.9,286047002.7,N
1679333355.7,286046997.5,N
1679333375.5,286046994.5,N
1679333395.4,286046994.0,N
1679333415.2,286046990.1,N
1679333435.1,286046993.2,N
1679333436.0,286046993.2,N
1679333455.8,286046991.3,N
1679333475.6,286046990.8,N
1679333495.5,286046992.5,N
1679333515.3,286046990.2,N
1679333535.1,286046990.6,N
1679333555.9,286046992.4,N
1679333575.7,286046998.0,N
1679333595.6,286046998.8,N
1679333615.4,286047003.2,N
1679333635.2,286047007.1,N
1679333655.1,286047001.8,N
1679333656.0,286047001.8,N
1679333675.8,286046998.9,N
1679333695.6,286046996.8,N
1679333715.5,286046993.5,N
1679333735.3,286046992.2,N
1679333755.1,286046996.1,N
1679333775.9,286046992.4,N
1679333795.7,286046990.9,N
1679333815.6,286046992.5,N
1679333835.4,286046994.1,N
1679333855.2,286046997.7,N
1679333875.1,286047000.3,N
1679333876.0,286047000.3,N
1679333895.8,286047002.1,N
1679333915.7,286046999.7,N
1679333935.5,286047005.9,N
1679333955.3,286047003.9,N
1679333975.2,286047003.3,N
1679333995.9,286047000.3,N
1679334015.7,286046998.8,N
1679334035.6,286046997.4,N
1679334055.4,286046995.0,N
1679334075.3,286046993.6,N
1679334125.1,286046995.8,E
1679334135.0,286046998.3,N
1679334136.0,286046998.3,P
1679334155.8,286047000.7,P
1679334175.6,286047001.0,N
1679334195.5,286046997.1,N
1679334215.3,286046995.4,Y
1679334235.1,286046997.8,P
1679334255.9,286046997.7,P
1679334275.7,286046997.8,P
1679334295.6,286046997.1,Y
1679334315.4,286047000.7,P
1679334335.2,286046998.3,N
1679334355.1,286047002.7,N
1679334356.0,286047002.7,N
1679334375.8,286047001.3,N
1679334395.6,286047003.1,N
1679334415.5,286047001.4,N
1679334435.3,286047002.1,N
1679334455.2,286047002.0,N
1679334475.9,286046999.8,N
1679334495.7,286046998.1,N
1679334515.6,286046999.4,N
1679334535.4,286046999.0,N
1679334555.2,286046996.6,N
1679334575.1,286046997.1,N
1679334576.0,286046997.1,N
1679334595.8,286046999.4,N
1679334615.7,286046998.7,N
1679334635.5,286046998.1,N
1679334655.3,286046997.3,N
1679334675.2,286046996.7,N
1679334695.0,286047001.1,N
1679334695.9,286047001.1,N
1679334715.7,286046999.3,N
1679334735.6,286046997.4,N
1679334755.4,286046999.1,N
1679334775.3,286047000.2,N
1679334795.1,286047001.3,N
1679334796.0,286047001.3,N
1679334815.8,286047004.7,N
1679334835.7,286047001.8,N
1679334855.5,286046999.8,N
1679334875.3,286047001.7,N
1679334895.2,286047007.3,Y
1679334915.0,286047009.1,P
1679334915.9,286047009.1,N
1679334935.8,286047010.8,N
1679334955.6,286047005.7,N
1679334975.4,286047007.2,N
1679334995.3,286047005.2,N
1679335015.1,286047007.4,N
1679335035.9,286047010.2,Y
1679335055.7,286046998.1,P
1679335075.5,286046997.5,N
1679335095.4,286046997.1,N
1679335115.2,286047000.2,N
1679335135.0,286047002.2,N
1679335135.9,286047002.2,N
1679335155.8,286046997.3,N
1679335175.6,286046995.5,N
1679335195.4,286046993.6,N
